Stündliche Wetter Otoczna

Heute, 10 April, Samstag

Zeit Temperatur Niederschläge Wind Luftdruck Luftfeuchtigkeit
00:00 +4°C° 0 mm 3 m/S 750 mmHg 77%
01:00 +3°C° 0 mm 3 m/S 750 mmHg 77%
02:00 +3°C° 0 mm 3 m/S 750 mmHg 78%
03:00 +4°C° 0 mm 2 m/S 750 mmHg 78%
04:00 +4°C° 0 mm 2 m/S 750 mmHg 78%
05:00 +5°C° 0 mm 2 m/S 750 mmHg 76%
06:00 +5°C° 0 mm 2 m/S 750 mmHg 75%
07:00 +6°C° 0 mm 2 m/S 751 mmHg 73%
08:00 +7°C° 0 mm 2 m/S 751 mmHg 69%
09:00 +9°C° 0 mm 2 m/S 751 mmHg 65%
10:00 +10°C° 0 mm 2 m/S 751 mmHg 62%
11:00 +9°C° 0.5 mm 2 m/S 751 mmHg 70%
12:00 +8°C° 0.5 mm 2 m/S 752 mmHg 77%
13:00 +7°C° 0.5 mm 2 m/S 752 mmHg 85%
14:00 +7°C° 0.1 mm 2 m/S 752 mmHg 87%
15:00 +7°C° 0.1 mm 2 m/S 752 mmHg 89%
16:00 +7°C° 0.1 mm 2 m/S 752 mmHg 91%
17:00 +7°C° 0 mm 1 m/S 753 mmHg 92%
18:00 +7°C° 0 mm 1 m/S 753 mmHg 93%
19:00 +7°C° 0 mm 1 m/S 753 mmHg 93%
20:00 +7°C° 0 mm 1 m/S 753 mmHg 94%
21:00 +7°C° 0 mm 1 m/S 754 mmHg 94%
22:00 +7°C° 0 mm 1 m/S 754 mmHg 94%
23:00 +6°C° 0 mm 2 m/S 754 mmHg 94%

Morgen, 11 April, Sonntag

Zeit Temperatur Niederschläge Wind Luftdruck Luftfeuchtigkeit
00:00 +6°C° 0 mm 2 m/S 753 mmHg 95%
01:00 +6°C° 0 mm 2 m/S 753 mmHg 95%
02:00 +5°C° 0 mm 3 m/S 753 mmHg 95%
03:00 +5°C° 0 mm 3 m/S 753 mmHg 95%
04:00 +4°C° 0 mm 3 m/S 752 mmHg 95%
05:00 +5°C° 0 mm 4 m/S 752 mmHg 90%
06:00 +6°C° 0 mm 4 m/S 752 mmHg 86%
07:00 +7°C° 0 mm 5 m/S 752 mmHg 81%
08:00 +9°C° 0 mm 6 m/S 752 mmHg 73%
09:00 +11°C° 0 mm 6 m/S 752 mmHg 66%
10:00 +14°C° 0 mm 7 m/S 752 mmHg 59%
11:00 +13°C° 0 mm 8 m/S 751 mmHg 56%
12:00 +15°C° 0 mm 8 m/S 751 mmHg 54%
13:00 +16°C° 0 mm 8 m/S 751 mmHg 51%
14:00 +16°C° 0 mm 8 m/S 751 mmHg 53%
15:00 +15°C° 0 mm 8 m/S 751 mmHg 55%
16:00 +15°C° 0 mm 8 m/S 751 mmHg 57%
17:00 +14°C° 0 mm 7 m/S 751 mmHg 60%
18:00 +11°C° 0 mm 7 m/S 751 mmHg 63%
19:00 +10°C° 0 mm 7 m/S 751 mmHg 66%
20:00 +9°C° 0 mm 6 m/S 751 mmHg 70%
21:00 +9°C° 0 mm 6 m/S 751 mmHg 74%
22:00 +8°C° 0 mm 6 m/S 751 mmHg 78%
23:00 +8°C° 0 mm 5 m/S 751 mmHg 80%

übermorgen, 12 April, Montag

Zeit Temperatur Niederschläge Wind Luftdruck Luftfeuchtigkeit
00:00 +8°C° 0 mm 5 m/S 751 mmHg 82%
01:00 +7°C° 0 mm 4 m/S 751 mmHg 84%
02:00 +7°C° 0 mm 4 m/S 751 mmHg 87%
03:00 +8°C° 0 mm 3 m/S 750 mmHg 89%
04:00 +7°C° 0 mm 3 m/S 750 mmHg 91%
05:00 +8°C° 0 mm 3 m/S 750 mmHg 87%
06:00 +8°C° 0 mm 3 m/S 751 mmHg 83%
07:00 +9°C° 0 mm 3 m/S 751 mmHg 80%
08:00 +10°C° 0 mm 3 m/S 751 mmHg 76%
09:00 +12°C° 0 mm 3 m/S 751 mmHg 73%
10:00 +13°C° 0 mm 3 m/S 751 mmHg 70%
11:00 +12°C° 0 mm 4 m/S 752 mmHg 72%
12:00 +12°C° 0 mm 4 m/S 752 mmHg 74%
13:00 +12°C° 0 mm 5 m/S 752 mmHg 76%
14:00 +9°C° 0 mm 6 m/S 752 mmHg 78%
15:00 +7°C° 0 mm 6 m/S 753 mmHg 80%
16:00 +5°C° 0 mm 6 m/S 753 mmHg 82%
17:00 +4°C° 0.1 mm 7 m/S 754 mmHg 83%
18:00 +3°C° 0.1 mm 7 m/S 754 mmHg 84%
19:00 +2°C° 0.1 mm 7 m/S 755 mmHg 84%
20:00 +2°C° 0.2 mm 7 m/S 755 mmHg 84%
21:00 0°C° 0.2 mm 7 m/S 756 mmHg 84%
22:00 0°C° 0.2 mm 7 m/S 756 mmHg 84%
23:00 +1°C° 0.1 mm 6 m/S 756 mmHg 82%

13 April, Dienstag

Zeit Temperatur Niederschläge Wind Luftdruck Luftfeuchtigkeit
00:00 +1°C° 0.1 mm 6 m/S 756 mmHg 81%
01:00 0°C° 0.1 mm 5 m/S 757 mmHg 79%
02:00 0°C° 0.2 mm 5 m/S 757 mmHg 79%
03:00 0°C° 0.2 mm 5 m/S 757 mmHg 79%
04:00 0°C° 0.2 mm 5 m/S 757 mmHg 79%
05:00 0°C° 0.2 mm 4 m/S 757 mmHg 79%
06:00 +1°C° 0.2 mm 4 m/S 757 mmHg 78%
07:00 +2°C° 0.2 mm 3 m/S 757 mmHg 77%
08:00 +1°C° 0 mm 4 m/S 757 mmHg 73%
09:00 +3°C° 0 mm 4 m/S 758 mmHg 69%
10:00 +3°C° 0 mm 5 m/S 758 mmHg 65%
11:00 +5°C° 0 mm 5 m/S 758 mmHg 59%
12:00 +6°C° 0 mm 5 m/S 758 mmHg 53%
13:00 +7°C° 0 mm 5 m/S 757 mmHg 47%
14:00 +7°C° 0 mm 5 m/S 757 mmHg 46%
15:00 +7°C° 0 mm 5 m/S 757 mmHg 44%
16:00 +8°C° 0 mm 5 m/S 756 mmHg 43%
17:00 +7°C° 0 mm 4 m/S 757 mmHg 47%
18:00 +6°C° 0 mm 4 m/S 757 mmHg 52%
19:00 +5°C° 0 mm 3 m/S 757 mmHg 56%
20:00 +4°C° 0 mm 3 m/S 757 mmHg 59%
21:00 +4°C° 0 mm 4 m/S 757 mmHg 61%
22:00 +3°C° 0 mm 4 m/S 757 mmHg 64%
23:00 +3°C° 0 mm 4 m/S 757 mmHg 67%

14 April, Mittwoch

Zeit Temperatur Niederschläge Wind Luftdruck Luftfeuchtigkeit
00:00 +2°C° 0 mm 3 m/S 757 mmHg 70%
01:00 +2°C° 0 mm 3 m/S 757 mmHg 72%
02:00 +2°C° 0 mm 3 m/S 757 mmHg 73%
03:00 +1°C° 0 mm 3 m/S 757 mmHg 74%
04:00 +1°C° 0 mm 3 m/S 757 mmHg 75%
05:00 +2°C° 0 mm 3 m/S 758 mmHg 74%
06:00 +2°C° 0 mm 3 m/S 758 mmHg 72%
07:00 +1°C° 0 mm 4 m/S 758 mmHg 70%
08:00 +4°C° 0 mm 4 m/S 758 mmHg 64%
09:00 +5°C° 0 mm 5 m/S 757 mmHg 58%
10:00 +5°C° 0 mm 6 m/S 757 mmHg 52%
11:00 +5°C° 0.1 mm 6 m/S 757 mmHg 50%
12:00 +7°C° 0.1 mm 6 m/S 757 mmHg 48%
13:00 +7°C° 0.1 mm 5 m/S 757 mmHg 46%
14:00 +7°C° 0.1 mm 6 m/S 756 mmHg 47%
15:00 +7°C° 0.1 mm 6 m/S 756 mmHg 48%
16:00 +7°C° 0.1 mm 6 m/S 756 mmHg 49%
17:00 +6°C° 0 mm 5 m/S 756 mmHg 53%
18:00 +5°C° 0 mm 5 m/S 756 mmHg 57%
19:00 +3°C° 0 mm 5 m/S 757 mmHg 60%
20:00 +3°C° 0 mm 4 m/S 757 mmHg 63%
21:00 +3°C° 0 mm 4 m/S 757 mmHg 65%
22:00 +1°C° 0 mm 4 m/S 757 mmHg 67%
23:00 +1°C° 0 mm 4 m/S 757 mmHg 67%

15 April, Donnerstag

Zeit Temperatur Niederschläge Wind Luftdruck Luftfeuchtigkeit
00:00 0°C° 0 mm 5 m/S 757 mmHg 68%
01:00 0°C° 0 mm 5 m/S 757 mmHg 68%
02:00 -1°C° 0 mm 6 m/S 757 mmHg 70%
03:00 -1°C° 0 mm 6 m/S 757 mmHg 72%
04:00 -2°C° 0 mm 6 m/S 757 mmHg 74%
05:00 -1°C° 0 mm 6 m/S 757 mmHg 73%
06:00 -1°C° 0 mm 6 m/S 757 mmHg 73%
07:00 -1°C° 0 mm 6 m/S 757 mmHg 72%
08:00 -1°C° 0.1 mm 7 m/S 757 mmHg 73%
09:00 0°C° 0.1 mm 7 m/S 757 mmHg 73%
10:00 0°C° 0.1 mm 8 m/S 757 mmHg 74%
11:00 0°C° 0.3 mm 8 m/S 757 mmHg 77%
12:00 0°C° 0.3 mm 8 m/S 757 mmHg 81%
13:00 0°C° 0.3 mm 8 m/S 757 mmHg 84%
14:00 0°C° 0.5 mm 8 m/S 757 mmHg 84%
15:00 0°C° 0.5 mm 7 m/S 757 mmHg 84%
16:00 0°C° 0.5 mm 7 m/S 757 mmHg 83%
17:00 0°C° 0.4 mm 7 m/S 757 mmHg 87%
18:00 -1°C° 0.4 mm 6 m/S 757 mmHg 90%
19:00 -1°C° 0.4 mm 6 m/S 757 mmHg 94%
20:00 -1°C° 0.8 mm 6 m/S 757 mmHg 95%
21:00 -1°C° 0.8 mm 6 m/S 757 mmHg 96%
22:00 -1°C° 0.8 mm 6 m/S 757 mmHg 97%
23:00 -1°C° 0.3 mm 6 m/S 757 mmHg 96%
Mehr zeigen

Wir brauchen deine Erlaubnis

Meteoprog und unser Service Anbieter werden persönliche Daten aufbewahren, so wie Cookies, Geräte Bezeichnung oder ähnliche Technologien von deinem Gerät und Prozess, so wie Persönliche Daten Inhalte und Werbungen, genauso wie social Media und den Verkehr zu analysieren.

  • Aufbewahrung und/oder Zugang zu deiner Geräte Informationen.

    Cookies, Geräte Bezeichnung oder andere Informationen, können aufbewahrt oder Zugang zu deinem Gerät erhalten, für den Grund, der oben angegeben wird.

  • Personalisierte Werbung und Inhalte, Messungen, Einblick in das Publikum und Produkt Entwicklung.

    Werbungen und Inhalte können personalisiert werden, basierend auf ein Profil. Mehr Daten können besser personalisierte Werbungen und Inhalte hinzufügen. Werbung und Inhalte können gezeigt und gemessen werden. Einblicke über das Publikum, welche die Werbung gesehen haben und den Inhalt, können abgeleitet werden. So wie Daten können genutzt werden, um es zu verbessern oder die Benutzer Erfahrung zu verbessern das System und die Software.

Wenn du “Ich stimme zu” klickst, erlaubst du uns, die Cookies zu benutzen die Geräte Bezeichnung, den Web oder ähnliche Technologien zu benutzen. Deine Settings, können in deinem Gerät bei deinem Browser geändert werden.

Für den bestimmten Zweck, berechtigten Interessen beruhen darauf, mehr als auf den Inhalt. Du kannst mehr darüber in unseren Privaten und Cookie Politik lesen.